• In Lithuania
  • List of Countries
  • For 7 days
  • Water Temperature
  • Satellite Maps
  • Weather Map
  • Weather Widgets
  • user-avatar
    Login

    Hourly Weather Mayrhofen

    Today, 22 June, Friday

    Time Temperature Precipitation Wind Pressure Humidity
    00:00 +9°C° 1.3 mm 2 mps 619 mmHg 97%
    01:00 +10°C° 0 mm 2 mps 619 mmHg 97%
    02:00 +9°C° 1.3 mm 2 mps 619 mmHg 97%
    03:00 +8°C° 1.3 mm 2 mps 619 mmHg 97%
    04:00 +7°C° 1.3 mm 3 mps 619 mmHg 97%
    05:00 +7°C° 0.2 mm 3 mps 619 mmHg 96%
    06:00 +7°C° 0.2 mm 3 mps 619 mmHg 94%
    07:00 +7°C° 0 mm 2 mps 619 mmHg 91%
    08:00 +7°C° 0 mm 2 mps 619 mmHg 85%
    09:00 +8°C° 0 mm 2 mps 619 mmHg 80%
    10:00 +9°C° 0 mm 3 mps 620 mmHg 74%
    11:00 +9°C° 0 mm 3 mps 620 mmHg 67%
    12:00 +10°C° 0 mm 3 mps 621 mmHg 60%
    13:00 +12°C° 0 mm 4 mps 621 mmHg 49%
    14:00 +11°C° 0.1 mm 4 mps 621 mmHg 51%
    15:00 +11°C° 0.1 mm 4 mps 621 mmHg 53%
    16:00 +10°C° 0.1 mm 4 mps 621 mmHg 55%
    17:00 +9°C° 0.2 mm 3 mps 621 mmHg 62%
    18:00 +8°C° 0.2 mm 3 mps 621 mmHg 69%
    19:00 +5°C° 0.2 mm 3 mps 621 mmHg 77%
    20:00 +5°C° 0.1 mm 2 mps 621 mmHg 81%
    21:00 +4°C° 0.1 mm 2 mps 621 mmHg 85%
    22:00 +4°C° 0.1 mm 2 mps 621 mmHg 89%
    23:00 +3°C° 0 mm 2 mps 621 mmHg 90%

    Tomorrow, 23 June, Saturday

    Time Temperature Precipitation Wind Pressure Humidity
    00:00 +3°C° 0 mm 2 mps 621 mmHg 90%
    01:00 +2°C° 0 mm 2 mps 621 mmHg 91%
    02:00 +3°C° 0 mm 1 mps 621 mmHg 92%
    03:00 +2°C° 0 mm 1 mps 620 mmHg 93%
    04:00 +1°C° 0 mm 1 mps 620 mmHg 93%
    05:00 +3°C° 0 mm 1 mps 620 mmHg 85%
    06:00 +5°C° 0 mm 1 mps 621 mmHg 77%
    07:00 +6°C° 0 mm 1 mps 621 mmHg 69%
    08:00 +7°C° 0 mm 2 mps 622 mmHg 60%
    09:00 +9°C° 0 mm 2 mps 623 mmHg 51%
    10:00 +12°C° 0 mm 2 mps 623 mmHg 42%
    11:00 +13°C° 0 mm 2 mps 623 mmHg 41%
    12:00 +14°C° 0 mm 2 mps 623 mmHg 39%
    13:00 +14°C° 0 mm 3 mps 623 mmHg 37%
    14:00 +13°C° 0 mm 3 mps 623 mmHg 40%
    15:00 +13°C° 0 mm 3 mps 623 mmHg 42%
    16:00 +13°C° 0 mm 3 mps 622 mmHg 45%
    17:00 +11°C° 0 mm 3 mps 622 mmHg 54%
    18:00 +10°C° 0 mm 3 mps 621 mmHg 64%
    19:00 +9°C° 0 mm 2 mps 621 mmHg 73%
    20:00 +7°C° 0 mm 2 mps 621 mmHg 80%
    21:00 +6°C° 0 mm 2 mps 621 mmHg 86%
    22:00 +6°C° 0 mm 1 mps 621 mmHg 93%
    23:00 +5°C° 0 mm 1 mps 621 mmHg 93%

    Day after tomorrow, 24 June, Sunday

    Time Temperature Precipitation Wind Pressure Humidity
    00:00 +5°C° 0 mm 1 mps 620 mmHg 94%
    01:00 +4°C° 0 mm 1 mps 620 mmHg 94%
    02:00 +4°C° 0 mm 1 mps 620 mmHg 94%
    03:00 +4°C° 0 mm 1 mps 620 mmHg 94%
    04:00 +4°C° 0 mm 1 mps 619 mmHg 94%
    05:00 +5°C° 0 mm 1 mps 620 mmHg 89%
    06:00 +6°C° 0 mm 1 mps 620 mmHg 83%
    07:00 +8°C° 0 mm 1 mps 620 mmHg 78%
    08:00 +9°C° 0.1 mm 1 mps 621 mmHg 73%
    09:00 +10°C° 0.1 mm 1 mps 621 mmHg 69%
    10:00 +10°C° 0.1 mm 2 mps 621 mmHg 65%
    11:00 +12°C° 0.3 mm 2 mps 621 mmHg 63%
    12:00 +12°C° 0.3 mm 2 mps 621 mmHg 62%
    13:00 +13°C° 0.3 mm 2 mps 621 mmHg 60%
    14:00 +12°C° 0.4 mm 2 mps 621 mmHg 63%
    15:00 +12°C° 0.4 mm 2 mps 621 mmHg 66%
    16:00 +10°C° 0.4 mm 2 mps 621 mmHg 69%
    17:00 +10°C° 0.3 mm 2 mps 620 mmHg 73%
    18:00 +9°C° 0.3 mm 2 mps 620 mmHg 78%
    19:00 +8°C° 0.3 mm 2 mps 620 mmHg 83%
    20:00 +7°C° 0.1 mm 2 mps 620 mmHg 87%
    21:00 +6°C° 0.1 mm 2 mps 620 mmHg 91%
    22:00 +6°C° 0.1 mm 1 mps 620 mmHg 95%
    23:00 +5°C° 0 mm 1 mps 619 mmHg 96%

    25 June, Monday

    Time Temperature Precipitation Wind Pressure Humidity
    00:00 +5°C° 0 mm 1 mps 619 mmHg 96%
    01:00 +4°C° 0 mm 1 mps 619 mmHg 96%
    02:00 +4°C° 0 mm 1 mps 619 mmHg 95%
    03:00 +3°C° 0 mm 1 mps 619 mmHg 95%
    04:00 +3°C° 0 mm 1 mps 619 mmHg 94%
    05:00 +5°C° 0 mm 1 mps 619 mmHg 88%
    06:00 +7°C° 0 mm 1 mps 620 mmHg 82%
    07:00 +8°C° 0 mm 1 mps 621 mmHg 76%
    08:00 +9°C° 0 mm 2 mps 621 mmHg 71%
    09:00 +10°C° 0 mm 2 mps 622 mmHg 66%
    10:00 +13°C° 0 mm 2 mps 623 mmHg 61%
    11:00 +14°C° 0.2 mm 2 mps 623 mmHg 60%
    12:00 +14°C° 0.2 mm 2 mps 623 mmHg 59%
    13:00 +14°C° 0.2 mm 3 mps 623 mmHg 58%
    14:00 +14°C° 0.3 mm 3 mps 623 mmHg 60%
    15:00 +13°C° 0.3 mm 3 mps 623 mmHg 62%
    16:00 +13°C° 0.3 mm 3 mps 623 mmHg 65%
    17:00 +12°C° 0.2 mm 3 mps 622 mmHg 71%
    18:00 +12°C° 0.2 mm 2 mps 622 mmHg 76%
    19:00 +10°C° 0.2 mm 2 mps 622 mmHg 82%
    20:00 +9°C° 0.1 mm 2 mps 622 mmHg 87%
    21:00 +7°C° 0.1 mm 2 mps 622 mmHg 91%
    22:00 +6°C° 0.1 mm 2 mps 622 mmHg 95%
    23:00 +6°C° 0 mm 1 mps 622 mmHg 96%

    26 June, Tuesday

    Time Temperature Precipitation Wind Pressure Humidity
    00:00 +6°C° 0 mm 1 mps 621 mmHg 96%
    01:00 +5°C° 0 mm 1 mps 621 mmHg 96%
    02:00 +5°C° 0 mm 1 mps 621 mmHg 95%
    03:00 +4°C° 0 mm 1 mps 621 mmHg 95%
    04:00 +4°C° 0 mm 1 mps 620 mmHg 94%
    05:00 +6°C° 0 mm 1 mps 621 mmHg 88%
    06:00 +8°C° 0 mm 1 mps 622 mmHg 81%
    07:00 +10°C° 0 mm 1 mps 623 mmHg 74%
    08:00 +12°C° 0 mm 2 mps 623 mmHg 66%
    09:00 +14°C° 0 mm 2 mps 624 mmHg 57%
    10:00 +16°C° 0 mm 2 mps 625 mmHg 49%
    11:00 +16°C° 0 mm 2 mps 625 mmHg 47%
    12:00 +17°C° 0 mm 3 mps 625 mmHg 46%
    13:00 +18°C° 0 mm 3 mps 625 mmHg 44%
    14:00 +18°C° 0 mm 3 mps 625 mmHg 46%
    15:00 +18°C° 0 mm 3 mps 624 mmHg 48%
    16:00 +17°C° 0 mm 3 mps 624 mmHg 50%
    17:00 +16°C° 0 mm 3 mps 624 mmHg 58%
    18:00 +15°C° 0 mm 2 mps 624 mmHg 66%
    19:00 +14°C° 0 mm 2 mps 623 mmHg 74%
    20:00 +12°C° 0 mm 2 mps 623 mmHg 81%
    21:00 +10°C° 0 mm 1 mps 622 mmHg 89%
    22:00 +8°C° 0 mm 1 mps 622 mmHg 96%
    23:00 +7°C° 0 mm 1 mps 622 mmHg 96%

    27 June, Wednesday

    Time Temperature Precipitation Wind Pressure Humidity
    00:00 +7°C° 0 mm 1 mps 622 mmHg 96%
    01:00 +7°C° 0 mm 1 mps 621 mmHg 96%
    02:00 +6°C° 0 mm 1 mps 621 mmHg 96%
    03:00 +6°C° 0 mm 1 mps 621 mmHg 96%
    04:00 +6°C° 0 mm 1 mps 621 mmHg 96%
    05:00 +8°C° 0 mm 1 mps 622 mmHg 89%
    06:00 +10°C° 0 mm 1 mps 623 mmHg 82%
    07:00 +13°C° 0 mm 1 mps 624 mmHg 75%
    08:00 +14°C° 0 mm 1 mps 624 mmHg 64%
    09:00 +16°C° 0 mm 1 mps 625 mmHg 53%
    10:00 +19°C° 0 mm 1 mps 625 mmHg 43%
    11:00 +19°C° 0 mm 2 mps 625 mmHg 42%
    12:00 +20°C° 0 mm 2 mps 625 mmHg 40%
    13:00 +20°C° 0 mm 2 mps 625 mmHg 39%
    14:00 +20°C° 0 mm 2 mps 625 mmHg 41%
    15:00 +20°C° 0 mm 3 mps 625 mmHg 44%
    16:00 +20°C° 0 mm 3 mps 625 mmHg 46%
    17:00 +18°C° 0 mm 2 mps 624 mmHg 55%
    18:00 +17°C° 0 mm 2 mps 624 mmHg 63%
    19:00 +16°C° 0 mm 1 mps 624 mmHg 72%
    20:00 +14°C° 0 mm 1 mps 623 mmHg 79%
    21:00 +12°C° 0 mm 1 mps 623 mmHg 87%
    22:00 +10°C° 0 mm 1 mps 622 mmHg 94%
    23:00 +10°C° 0 mm 1 mps 622 mmHg 94%
    Show more